AKDT,Max TemperatureF,Mean TemperatureF,Min TemperatureF,Max Dew PointF,MeanDew PointF,Min DewpointF,Max Humidity, Mean Humidity, Min Humidity, Max Sea Level PressureIn, Mean Sea Level PressureIn, Min Sea Level PressureIn, Max VisibilityMiles, Mean VisibilityMiles, Min VisibilityMiles, Max Wind SpeedMPH, Mean Wind SpeedMPH, Max Gust SpeedMPH,PrecipitationIn, CloudCover, Events, WindDirDegrees
2012-10-1,46,36,27,29,25,22,82,61,40,30.36,30.25,30.09,10,10,10,6,2,,0.00,2,,34
2012-10-2,46,42,39,39,32,26,89,68,57,30.38,30.29,30.23,10,10,10,7,2,,0.00,8,Rain,346
2012-10-3,48,42,39,44,39,36,97,86,66,30.26,30.18,30.04,10,9,5,9,2,,0.24,8,Rain,315
2012-10-4,57,49,43,48,44,42,97,87,62,30.13,30.01,29.96,10,10,10,18,5,23,0.00,7,Rain,304
2012-10-5,52,49,46,47,46,44,100,94,77,30.23,30.16,30.09,10,6,0,9,4,18,0.65,7,Fog-Rain,359
2012-10-6,52,48,46,48,46,43,100,90,76,30.29,30.22,30.13,10,10,7,9,4,,0.47,8,Rain,139
2012-10-7,48,46,44,47,46,43,100,98,93,30.31,30.27,30.25,10,7,0,5,1,,0.18,8,Fog-Rain,1
2012-10-8,53,50,46,48,47,44,100,92,80,30.25,30.19,30.16,10,10,2,8,3,,0.00,8,,254
2012-10-9,50,48,46,47,46,44,100,95,80,30.18,30.14,30.10,10,5,1,7,2,,0.07,8,,344
2012-10-10,51,46,42,46,41,29,100,83,60,30.09,30.02,29.93,10,8,0,9,2,,0.00,5,,2
2012-10-11,48,38,30,30,26,22,89,64,39,29.93,29.76,29.54,10,10,10,8,2,,0.00,1,,352
2012-10-12,42,34,25,27,24,21,92,73,43,29.52,29.29,29.11,10,10,9,7,0,,0.00,0,,180
2012-10-13,37,32,28,30,24,15,93,72,46,29.22,29.16,29.09,10,8,1,12,5,,0.04,6,Snow,18
2012-10-14,39,34,30,34,30,28,89,83,67,29.20,29.07,28.92,10,10,10,8,5,,0.01,5,Rain,27
2012-10-15,39,36,32,35,31,19,100,87,59,29.10,29.02,28.92,10,8,2,10,3,,0.05,8,Rain-Snow,351
2012-10-16,33,30,27,29,21,12,88,66,47,29.54,29.28,29.09,10,9,2,9,5,,0.00,8,Snow,360
2012-10-17,37,30,24,27,22,15,88,69,50,29.74,29.68,29.57,10,10,10,12,4,,0.00,3,,359
2012-10-18,35,27,19,19,16,14,85,66,44,29.83,29.78,29.69,10,10,10,5,0,,0.00,1,,51
2012-10-19,37,28,19,19,16,13,85,62,41,30.07,29.95,29.83,10,10,10,14,2,,0.00,0,,62
2012-10-20,42,30,19,15,12,5,78,49,27,30.27,30.21,30.09,10,10,10,16,5,28,0.00,0,,10
2012-10-21,35,27,19,17,11,4,74,52,27,30.34,30.31,30.27,10,10,10,15,6,26,0.00,0,,92
2012-10-22,30,22,15,14,10,8,74,60,38,30.29,30.27,30.25,10,10,7,5,1,,0.00,0,,30
2012-10-23,32,22,12,19,11,6,81,66,38,30.26,30.24,30.22,10,10,10,6,2,,0.00,0,,104
2012-10-24,37,24,12,20,12,6,77,67,37,30.43,30.31,30.26,10,10,10,4,2,,0.00,0,,135
2012-10-25,35,25,15,15,11,9,81,62,35,30.53,30.49,30.44,10,10,9,7,2,,0.00,0,,48
2012-10-26,30,22,14,16,12,8,81,67,47,30.48,30.37,30.21,10,10,10,5,1,,0.00,0,,33
2012-10-27,30,21,12,21,14,8,85,76,57,30.20,30.09,30.01,10,10,7,5,1,,0.00,0,,84
2012-10-28,34,24,14,21,15,9,85,74,59,30.01,30.00,29.99,10,10,8,5,2,,0.00,0,,38
2012-10-29,35,26,16,25,19,12,93,77,54,30.00,29.88,29.80,10,9,2,5,1,,0.00,4,Snow,14
2012-10-30,32,26,21,27,18,8,100,71,38,29.80,29.68,29.52,10,7,1,17,3,29,0.04,6,Snow,340
2012-10-31,28,22,16,10,8,6,74,57,41,29.66,29.54,29.49,10,10,10,15,6,22,0.00,3,,16